{"data":{"norad_id":47275,"intl_designator":"2020-100T","name":"ONEWEB-0129","alt_names":[],"object_type":"PAYLOAD","status":"ACTIVE","operator":null,"country":"UK","launch_date":"2020-12-18","launch_site_code":"VOSTO","launch_vehicle":null,"mission":null,"orbit_class":"UNKNOWN","rcs_meters":null,"size_class":null,"mass_kg":null,"dimensions":null,"purposes":["comms"],"wikipedia_slug":null,"has_3d_model":false,"image_url":null,"decayed_at":null,"tle_current":{"epoch":"2026-05-25T03:20:20.453568Z","epoch_age_seconds":56950,"freshness":"FRESH","line1":"1 47275U 20100T   26145.13912562 -.00000323  00000+0 -93429-3 0  9994","line2":"2 47275  87.8959 355.2403 0001206 125.1269 234.9972 13.12440731261652","mean_motion":13.12440731,"eccentricity":0.0001206,"inclination_deg":87.8959,"raan_deg":355.2403,"arg_perigee_deg":125.1269,"mean_anomaly_deg":234.9972,"bstar":-0.00093429,"rev_number":26165,"period_min":109.71924034259,"perigee_km":1212.8164617132,"apogee_km":1214.647620526,"semimajor_km":7591.8690411196,"source":"CELESTRAK","updated_at":"2026-05-25T13:38:22.382645Z"}}}